Flag for U.S.A. Weather past 2 weeks in Rochester, New York, U.S.A.

Now
66 °F

Passing clouds.


Feels Like: 66 °F
Forecast: 68 / 82 °F
Wind: 5 mph from Southwest

Location: Greater Rochester International Airport

Current Time: Jul 28, 2015 at 6:56:39 AM

Latest Report: Jul 28, 2015 at 5:54 AM


Visibility: 10 mi

Pressure: 30.01 "Hg

Humidity: 87%

Dew point: 62 °F

Location of RochesterLocation

Historic Weather in Rochester — Graph

°F

Rochester temperature yesterday

Maximum temperature yesterday: 88 °F (at 4:54 PM)
Minimum temperature yesterday: 63 °F (at 4:54 AM)
Average temperature yesterday: 76 °F

Past Weeks' High & Low Weather Summary

 TemperatureHumidityPressure
High88 °F (Jul 19, 12:54 PM)96% (Jul 18, 4:57 AM)30.15 "Hg (Jul 18, 4:57 AM)
Low51 °F (Jul 16, 4:54 AM)30% (Jul 23, 4:54 PM)29.52 "Hg (Jul 14, 4:54 PM)
Average72 °F68%29.87 "Hg
* Reported Jul 13 4:54 AM — Jul 28 4:54 AM, Rochester, Weather by CustomWeather, © 2015

Note: Actual official high and low records may vary slightly from our data, if they occured in-between our weather recording intervals... More about our weather records

Advertising

Rochester weather history for previous 24 hours

 ConditionsComfort  
Time TempWeatherWind HumidityBarometerVisibility
4:54 AM
Tue, Jul 28
67 °FClear.7 mph85%30.01 "Hg10 mi
3:54 AM67 °FPassing clouds.6 mph87%30.01 "Hg10 mi
2:54 AM68 °FPassing clouds.5 mph87%30.01 "Hg10 mi
1:54 AM69 °FPassing clouds.5 mph87%30.02 "Hg10 mi
12:54 AM70 °FPassing clouds.5 mph87%30.02 "Hg10 mi
11:54 PM
Mon, Jul 27
70 °FClear.3 mph84%30.01 "Hg10 mi
10:54 PM73 °FPassing clouds.No wind76%29.99 "Hg10 mi
9:54 PM76 °FClear.No wind69%30.00 "Hg10 mi
8:54 PM80 °FPassing clouds.5 mph58%30.00 "Hg10 mi
7:54 PM84 °FPassing clouds.6 mph49%29.98 "Hg10 mi
6:54 PM86 °FPassing clouds.6 mph48%29.98 "Hg10 mi
5:54 PM87 °FScattered clouds.9 mph46%29.98 "Hg10 mi
4:54 PM88 °FPartly sunny.3 mph40%29.99 "Hg10 mi
3:54 PM87 °FPassing clouds.No wind40%30.00 "Hg10 mi
2:54 PM86 °FPassing clouds.7 mph43%30.01 "Hg10 mi
1:54 PM86 °FPassing clouds.No wind45%30.01 "Hg10 mi
12:54 PM85 °FPassing clouds.3 mph46%30.02 "Hg10 mi
11:54 AM83 °FPassing clouds.5 mph50%30.03 "Hg10 mi
10:54 AM81 °FPassing clouds.No wind56%30.03 "Hg10 mi
9:54 AM76 °FPassing clouds.5 mph72%30.04 "Hg10 mi
8:54 AM72 °FSunny.6 mph78%30.03 "Hg10 mi
7:54 AM67 °FSunny.7 mph90%30.02 "Hg9 mi
6:54 AM64 °FFog.5 mph94%30.01 "Hg6 mi
Weather by CustomWeather, © 2015

See weather overviewHow to use our weather pages